Temperature
18 18 18 18 18 18 18 18 18 18 17 17 17 17 16 16 16 16 16 15 15 15 15 14 14 14 14 13 13 13 14 14 14 15 15 15 15 15 14 15 15 15 15
18 18 18 18 18 18 18 18 18 18 17 17 17 17 16 16 16 16 16 15 15 15 14 14 14 14 13 13 13 13 13 14 13 14 16 16 16 14 15 14 14 15 15
19 18 18 18 18 18 18 17 18 18 17 17 17 17 17 16 16 16 15 15 15 14 14 14 14 13 13 13 13 12 12 14 13 13 15 16 17 16 15 14 14 14 14
19 19 18 18 18 18 18 18 18 18 18 18 17 17 17 16 16 16 15 15 15 14 14 14 14 13 13 13 13 13 12 13 14 13 13 13 14 15 16 15 14 14 14
20 19 19 18 18 18 18 18 18 18 18 17 17 17 17 16 16 16 15 15 15 14 14 14 13 13 13 13 13 12 12 12 13 13 13 13 13 14 15 16 15 15 14
21 20 19 19 18 18 18 18 18 18 18 18 17 17 16 16 16 16 15 15 14 14 14 14 13 13 13 13 13 12 12 12 12 12 13 13 14 14 14 15 15 15 15
21 20 19 19 18 18 18 18 18 18 18 18 17 17 17 16 16 16 15 15 15 14 14 14 13 13 13 13 12 12 12 12 12 12 12 12 13 13 13 14 14 14 14
21 20 20 19 19 18 18 18 18 18 18 18 18 17 17 16 16 16 15 15 15 14 14 14 13 13 13 13 13 12 12 12 12 12 12 12 12 12 12 13 13 14 15
22 21 20 20 19 19 18 18 18 18 18 18 18 17 17 17 16 16 16 15 15 14 14 14 13 13 13 13 13 12 12 12 12 12 12 12 12 12 12 12 12 13 14
23 22 21 20 20 19 19 18 18 19 18 18 18 18 17 17 17 16 16 16 15 15 14 14 13 13 13 13 13 12 12 12 12 12 12 12 12 12 11 12 12 12 12
23 22 21 21 20 20 19 18 19 19 18 18 18 18 18 17 17 17 16 16 16 15 15 14 14 13 13 13 13 12 12 12 12 12 11 11 11 12 12 12 12 12 12
24 23 22 21 21 20 20 19 19 19 19 19 19 18 18 18 17 17 17 16 16 15 15 14 14 14 13 13 13 13 12 12 12 12 12 12 12 11 12 11 12 12 11
24 23 22 21 21 20 20 20 19 19 19 19 19 19 18 18 18 17 17 16 16 15 15 15 15 14 14 14 13 13 13 12 12 12 12 12 12 12 12 11 12 12 12
23 23 23 22 21 21 20 20 20 20 19 19 19 19 19 18 18 17 17 17 16 16 15 15 15 15 14 14 14 13 13 13 13 12 12 12 12 12 12 12 11 11 11
23 23 23 22 21 21 20 20 20 20 19 19 19 19 19 18 18 18 17 17 16 16 16 15 15 15 15 14 14 14 13 13 13 13 13 12 12 12 12 12 12 11 11
23 23 22 22 21 21 20 20 20 20 19 19 19 19 19 18 18 18 17 17 17 16 16 15 15 15 15 15 15 15 14 13 13 13 13 13 13 13 13 13 12 12 11
21 22 21 21 21 21 20 20 20 20 19 19 19 19 19 18 18 17 17 17 17 16 16 16 15 15 15 15 15 15 14 14 13 13 13 13 13 12 12 12 12 12 12
20 20 20 20 20 20 20 20 19 19 19 19 19 19 18 18 18 17 17 17 16 16 16 16 15 15 15 15 15 15 14 14 14 13 13 13 13 12 12 12 12 12 11
18 19 19 19 19 19 19 19 19 19 18 18 18 18 18 18 17 17 17 17 16 16 16 15 15 15 15 15 15 15 14 14 14 13 13 13 13 13 12 12 12 11 11
17 18 18 18 18 18 18 18 18 18 17 17 17 17 17 17 17 17 17 16 16 16 15 15 15 15 15 15 15 14 14 13 13 13 13 13 13 13 12 12 12 11 11
17 17 17 17 18 17 18 17 17 17 17 16 16 16 16 16 16 16 16 16 15 15 15 14 14 14 14 14 14 14 13 13 13 13 13 13 13 13 12 12 12 12 11
16 16 16 16 16 16 17 16 16 16 15 15 15 16 16 16 15 15 15 15 15 14 14 14 14 14 13 13 13 13 13 13 12 12 12 13 12 12 12 12 12 12 11
15 15 16 16 15 15 16 16 15 15 15 15 15 15 15 15 15 14 14 14 14 14 13 13 13 13 13 13 13 13 12 12 12 12 12 12 12 12 11 11 11 11 11
14 15 15 15 14 14 14 14 14 14 14 14 14 14 14 14 14 14 13 13 13 13 13 13 13 13 12 12 12 11 11 11 11 11 11 11 11 11 11 11 11 11 11
13 13 13 13 13 13 13 13 13 13 13 13 13 13 13 13 13 12 12 12 12 12 12 12 12 11 11 11 11 11 10 10 10 10 10 10 11 11 11 11 11 11 11
13 13 13 13 12 12 12 12 12 12 12 12 12 12 12 12 12 12 12 12 11 11 11 11 11 11 10 10 10 10 10 10 10 10 10 10 11 11 11 11 11 11 11
Wind_Speed
11 11 10 10 11 11 11 11 11 10 9 8 9 9 8 7 6 6 7 7 6 5 2 2 3 1 2 2 2 1 0 2 3 3 2 2 2 1 1 2 3 2 2
12 12 12 12 12 12 12 12 12 11 11 9 8 7 7 7 6 6 7 7 6 6 4 2 2 2 2 2 2 2 2 2 2 4 3 2 4 2 2 1 2 3 2
15 14 13 13 13 13 13 12 12 12 11 11 9 7 7 6 6 7 6 7 7 6 4 4 2 2 1 2 0 1 2 2 2 3 4 3 1 1 3 1 2 3 3
14 14 14 14 15 14 13 12 12 12 12 12 11 11 9 7 7 7 7 7 7 7 6 5 4 2 1 1 2 1 1 2 2 1 2 3 4 4 1 3 2 1 1
15 15 15 15 15 15 14 13 13 13 12 12 11 11 9 7 6 7 8 7 7 7 6 6 5 4 2 2 1 1 1 1 2 2 1 1 1 4 5 2 2 2 1
15 15 15 15 15 14 14 14 14 13 13 13 12 11 9 8 8 8 8 8 6 6 7 6 5 5 3 3 3 2 2 1 1 2 2 2 2 3 3 4 4 4 2
14 15 16 16 16 16 16 15 16 15 15 14 13 12 11 10 10 9 8 7 6 6 7 6 6 5 4 4 4 4 2 2 2 3 2 2 3 3 4 5 5 5 4
14 15 16 17 17 18 17 17 17 16 16 15 14 12 12 10 9 9 7 7 6 5 6 7 7 6 6 5 5 5 4 3 4 3 3 4 3 3 4 4 6 6 5
15 16 16 17 17 18 18 18 18 17 16 16 15 13 13 11 9 9 8 7 6 6 7 7 7 7 6 6 5 5 4 4 5 5 5 5 3 4 4 4 5 6 7
15 15 16 17 17 17 17 17 17 17 17 16 15 13 13 12 10 10 9 8 8 7 8 8 8 7 7 7 7 6 6 6 6 5 5 5 5 4 5 5 5 6 7
15 15 15 16 16 16 17 17 17 17 16 16 15 14 13 12 12 10 10 10 9 9 9 9 8 8 8 8 7 7 6 7 7 7 7 7 7 6 6 6 6 7 7
14 15 15 16 16 17 17 17 17 17 17 16 15 14 13 13 12 12 11 11 10 10 10 9 9 9 9 9 9 9 8 8 8 8 8 8 7 8 8 7 8 7 7
14 15 15 16 16 16 16 17 17 17 17 16 15 15 14 14 13 12 12 11 11 10 10 10 10 10 10 10 10 9 9 9 9 9 9 9 9 9 8 8 9 8 8
14 15 15 16 16 16 16 16 16 16 16 16 16 15 15 14 14 13 12 12 11 11 11 11 11 11 11 11 10 10 10 10 10 10 10 10 11 11 10 9 10 9 10
14 15 15 15 15 15 15 15 14 14 14 15 15 15 14 13 13 13 12 12 12 12 11 11 11 11 11 11 11 10 11 11 11 11 12 12 11 10 10 10 10 9 10
10 13 14 14 14 14 14 14 14 13 13 14 14 13 13 13 13 12 12 12 12 11 11 12 12 12 11 9 9 11 11 11 12 12 12 12 12 14 15 15 14 13 13
5 8 10 11 11 12 12 13 13 13 13 14 13 13 13 13 13 12 12 12 11 11 11 12 12 13 11 10 12 13 12 13 13 13 13 12 12 12 13 15 18 18 19
1 3 5 7 8 8 9 10 11 12 13 13 12 12 12 12 12 12 12 11 10 10 11 12 12 12 12 12 14 13 14 14 15 15 15 15 14 14 13 14 15 15 16
2 2 2 3 4 6 7 8 9 9 10 11 11 11 12 11 11 12 11 10 10 10 11 11 12 12 12 12 14 13 12 13 16 16 16 16 16 15 13 15 16 17 16
6 6 6 6 6 5 6 7 7 7 7 7 8 8 8 9 10 10 10 9 9 10 10 11 11 12 13 11 13 13 11 13 14 14 15 17 18 16 15 16 17 18 17
9 9 9 9 8 6 7 7 6 4 3 4 5 5 6 7 7 7 7 7 8 8 9 10 10 11 12 11 13 14 11 13 14 14 14 13 16 19 18 18 17 18 16
11 11 10 10 9 8 7 8 6 4 3 3 3 3 3 4 4 5 5 6 6 8 9 9 10 10 10 10 11 14 16 14 14 14 14 13 9 14 17 16 18 17 14
11 10 11 12 11 9 8 8 6 4 4 3 3 2 2 2 2 3 5 5 6 7 8 8 9 9 8 8 12 14 15 16 14 14 16 15 12 12 14 18 19 16 15
10 10 11 11 10 9 9 8 6 5 5 4 3 2 1 1 1 2 3 4 5 6 7 8 9 9 8 8 7 7 9 12 13 14 15 16 18 17 17 15 14 15 16
9 10 11 10 10 10 9 8 7 6 5 5 4 2 2 1 1 1 2 4 4 4 6 8 9 9 10 7 8 9 11 11 11 12 13 14 15 15 15 15 15 15 16
8 9 10 10 10 10 9 9 8 7 6 5 4 3 2 2 2 2 2 3 5 3 6 8 9 9 9 11 12 13 14 15 13 11 15 16 17 17 17 16 15 15 15
Wind_Direction
174 169 176 181 181 179 176 176 173 170 167 165 167 165 166 164 160 158 152 155 149 145 150 121 122 70 71 38 26 341 345 339 338 292 258 179 152 69 40 357 337 344 313
170 173 181 183 187 185 179 176 176 175 178 174 169 169 160 165 159 156 153 163 162 165 167 156 157 122 114 101 58 1 334 11 357 321 289 224 173 159 88 52 41 17 7
177 179 185 185 184 185 183 181 178 177 181 171 164 157 155 165 165 168 170 173 175 178 174 177 177 163 217 115 96 336 340 345 14 3 328 310 348 109 145 94 55 28 14
183 182 184 187 187 185 182 181 175 177 177 174 177 178 183 183 180 180 173 174 182 184 183 188 188 204 216 153 210 89 318 310 334 76 11 354 353 309 245 178 141 88 16
185 185 187 188 189 184 181 179 177 179 179 184 183 188 192 186 176 177 167 182 180 189 191 194 196 200 213 191 227 170 285 291 324 331 328 341 272 275 291 294 300 275 281
185 187 187 186 186 183 181 179 179 181 182 187 189 195 192 186 179 184 178 189 185 191 192 198 199 205 207 194 204 208 208 288 327 315 316 307 306 307 304 296 288 296 297
183 185 185 185 185 184 184 183 182 184 186 189 192 195 195 190 190 194 190 199 194 193 187 196 198 204 202 203 206 211 235 226 235 260 284 302 304 308 304 300 303 302 290
185 186 188 187 187 186 185 185 186 188 188 192 195 196 196 200 198 198 198 199 206 198 179 192 197 201 201 204 205 223 218 223 234 248 270 275 272 282 284 294 302 298 290
186 187 188 188 189 189 188 188 189 190 191 195 194 196 198 205 197 187 199 199 199 191 184 194 198 199 201 208 214 231 226 223 234 235 225 249 261 258 270 276 284 294 299
187 189 189 191 191 192 190 191 191 193 193 195 196 197 197 199 196 195 196 197 196 195 192 197 200 200 201 206 219 225 216 227 233 244 254 256 259 257 258 262 266 271 282
187 187 188 190 191 192 190 191 193 195 196 198 197 199 197 197 196 196 196 196 198 196 201 202 203 205 206 207 215 232 222 228 234 235 236 242 259 262 263 256 259 262 267
186 185 185 186 189 192 193 194 196 197 198 197 196 198 197 197 198 199 199 197 199 201 204 206 208 211 212 212 217 227 228 231 236 238 239 244 244 244 257 262 263 264 266
188 186 185 187 191 193 195 196 199 200 199 196 196 197 198 198 201 202 199 199 202 206 209 211 214 216 217 218 221 227 232 235 238 240 241 244 246 247 250 252 260 264 262
191 191 190 192 194 196 197 199 201 200 198 196 196 197 199 198 199 198 197 199 202 206 211 215 219 221 221 223 225 227 231 236 239 241 243 245 245 246 250 250 251 258 266
197 198 199 198 199 200 201 203 202 201 199 197 199 200 198 197 197 197 198 200 204 210 213 218 222 223 225 226 226 231 233 235 241 242 243 244 244 252 252 257 257 256 259
206 204 204 203 202 203 203 202 202 198 194 197 201 198 193 192 194 196 198 201 206 213 215 220 225 226 230 206 209 234 245 242 243 246 246 246 235 233 230 241 251 257 257
221 211 207 207 206 205 204 203 199 194 192 197 197 193 191 193 194 196 199 203 206 211 217 224 228 232 233 201 205 219 242 249 249 249 249 252 249 232 241 232 228 238 242
243 209 202 197 199 199 198 196 195 192 193 195 196 193 192 193 193 198 203 206 211 216 222 228 232 236 234 205 210 215 234 249 252 250 250 251 255 249 244 249 247 245 241
43 77 127 152 156 166 172 173 181 185 189 194 195 194 192 192 193 200 206 209 214 220 225 229 235 239 240 212 212 217 242 245 249 251 251 250 252 244 228 245 253 255 254
61 70 78 85 96 111 133 146 156 170 184 188 188 188 190 194 198 204 209 212 218 228 234 235 236 240 244 222 208 213 245 252 255 253 251 245 242 245 220 239 249 254 256
65 69 74 75 75 85 106 114 118 135 160 167 171 177 185 200 206 207 209 216 222 232 240 246 245 245 247 235 212 210 240 256 261 263 261 257 223 224 224 231 246 252 257
69 70 74 72 69 72 85 91 86 87 103 122 143 158 174 204 208 210 215 221 233 237 241 246 254 253 247 242 231 218 228 250 263 266 268 270 245 223 225 230 241 244 247
70 69 72 70 62 60 66 71 61 61 77 93 108 123 144 180 220 224 226 229 232 249 255 256 260 263 261 247 225 226 230 236 249 264 269 275 272 253 245 238 235 235 241
72 73 73 71 65 58 58 60 54 56 73 76 74 84 108 163 199 241 248 256 257 260 268 272 274 276 273 272 273 266 258 245 250 263 266 255 250 248 256 258 239 236 242
76 76 76 76 72 67 61 54 51 54 63 65 64 62 68 50 285 267 286 280 289 303 291 291 292 290 288 309 339 308 292 292 294 297 278 271 266 259 253 250 247 243 240
80 76 73 72 69 66 62 54 50 50 49 50 40 29 17 5 328 315 298 230 253 258 252 257 272 289 289 300 298 290 281 276 276 279 271 269 267 264 262 260 256 249 245
Height
1519 1521 1524 1527 1530 1534 1538 1542 1545 1549 1552 1555 1558 1560 1563 1565 1566 1568 1568 1569 1570 1570 1570 1571 1570 1570 1570 1570 1570 1570 1570 1570 1569 1569 1569 1569 1568 1568 1568 1568 1569 1569 1569
1517 1520 1523 1526 1529 1532 1535 1540 1544 1547 1551 1554 1557 1559 1562 1564 1566 1567 1567 1568 1569 1569 1570 1570 1570 1570 1569 1569 1569 1568 1570 1569 1568 1569 1568 1568 1569 1568 1568 1568 1568 1568 1568
1515 1518 1521 1524 1527 1531 1534 1539 1542 1546 1549 1552 1555 1558 1560 1562 1564 1565 1566 1567 1568 1568 1569 1569 1569 1569 1570 1569 1568 1568 1568 1569 1569 1568 1569 1568 1566 1568 1568 1567 1567 1567 1567
1513 1516 1519 1522 1526 1529 1533 1537 1540 1544 1547 1551 1554 1557 1559 1562 1563 1564 1565 1566 1566 1567 1567 1568 1568 1568 1569 1568 1568 1568 1568 1568 1569 1568 1567 1568 1568 1568 1567 1568 1567 1566 1566
1510 1513 1517 1520 1524 1528 1531 1535 1538 1542 1546 1549 1552 1555 1558 1560 1562 1563 1563 1564 1565 1565 1566 1566 1566 1566 1567 1567 1566 1566 1566 1567 1568 1568 1568 1568 1567 1568 1568 1567 1567 1566 1566
1507 1511 1515 1519 1522 1526 1529 1533 1536 1540 1543 1547 1550 1553 1556 1558 1560 1561 1561 1562 1563 1564 1564 1564 1565 1565 1566 1565 1565 1565 1565 1566 1565 1566 1567 1567 1567 1567 1567 1566 1566 1565 1565
1505 1509 1513 1516 1520 1523 1527 1530 1534 1537 1541 1544 1548 1551 1554 1556 1557 1559 1559 1561 1562 1562 1562 1563 1563 1563 1563 1563 1564 1564 1565 1565 1564 1564 1565 1566 1566 1566 1566 1566 1564 1564 1563
1502 1506 1510 1513 1517 1521 1524 1528 1531 1535 1538 1542 1545 1548 1551 1554 1556 1556 1558 1558 1560 1561 1560 1560 1561 1561 1562 1562 1562 1563 1563 1563 1563 1563 1563 1563 1564 1564 1564 1564 1564 1562 1561
1499 1503 1507 1511 1514 1518 1521 1525 1528 1532 1536 1539 1542 1545 1548 1551 1553 1553 1554 1556 1556 1558 1557 1558 1558 1559 1559 1560 1560 1562 1561 1561 1561 1562 1561 1562 1562 1562 1562 1562 1562 1562 1560
1496 1500 1504 1508 1512 1515 1519 1522 1525 1529 1533 1536 1539 1542 1545 1547 1549 1550 1551 1552 1553 1554 1555 1555 1556 1557 1557 1557 1558 1559 1559 1559 1559 1559 1559 1559 1560 1560 1559 1559 1559 1559 1559
1493 1497 1501 1505 1509 1513 1516 1519 1522 1526 1529 1533 1536 1539 1541 1543 1545 1547 1548 1549 1550 1551 1552 1553 1553 1554 1555 1555 1555 1556 1557 1556 1557 1557 1557 1556 1556 1557 1557 1556 1556 1556 1555
1491 1494 1498 1502 1506 1510 1513 1516 1519 1522 1525 1529 1532 1535 1537 1540 1542 1543 1545 1546 1547 1548 1549 1550 1550 1551 1552 1552 1552 1553 1554 1554 1554 1554 1554 1554 1554 1553 1553 1553 1553 1552 1551
1489 1492 1496 1499 1502 1506 1509 1513 1516 1519 1522 1525 1528 1530 1533 1535 1537 1539 1541 1542 1543 1545 1546 1546 1547 1548 1549 1549 1549 1550 1550 1550 1551 1551 1550 1550 1550 1549 1549 1548 1549 1548 1548
1486 1489 1492 1496 1499 1503 1506 1509 1512 1515 1518 1521 1523 1525 1528 1530 1533 1535 1537 1538 1539 1541 1542 1543 1544 1544 1545 1545 1546 1546 1546 1547 1547 1546 1546 1546 1546 1545 1545 1544 1543 1543 1543
1483 1486 1489 1492 1496 1499 1502 1505 1508 1511 1514 1516 1518 1521 1523 1526 1528 1530 1532 1533 1535 1537 1538 1539 1540 1540 1541 1542 1542 1543 1543 1542 1542 1542 1542 1541 1541 1540 1540 1540 1540 1539 1538
1481 1483 1486 1489 1492 1494 1497 1500 1503 1506 1509 1511 1513 1516 1518 1521 1523 1525 1527 1529 1530 1532 1533 1534 1536 1536 1537 1538 1537 1538 1538 1538 1537 1537 1537 1536 1535 1534 1534 1534 1533 1533 1533
1479 1481 1483 1485 1487 1490 1493 1495 1498 1501 1504 1506 1509 1511 1513 1515 1518 1520 1522 1524 1525 1527 1528 1530 1531 1531 1532 1532 1532 1532 1532 1532 1532 1531 1531 1531 1531 1529 1528 1527 1526 1526 1525
1477 1478 1480 1482 1484 1486 1488 1491 1494 1497 1499 1501 1503 1506 1508 1510 1513 1516 1518 1519 1521 1522 1523 1525 1525 1526 1526 1526 1527 1527 1526 1526 1525 1525 1524 1524 1523 1523 1522 1522 1521 1519 1518
1477 1477 1478 1479 1481 1483 1485 1487 1490 1492 1495 1497 1499 1501 1503 1506 1508 1511 1513 1515 1516 1517 1518 1519 1520 1520 1520 1520 1521 1520 1519 1519 1518 1518 1517 1517 1516 1516 1515 1515 1513 1512 1512
1477 1477 1477 1478 1479 1481 1482 1484 1486 1489 1491 1493 1495 1497 1500 1502 1504 1506 1508 1510 1511 1512 1513 1513 1513 1513 1514 1514 1514 1513 1513 1512 1512 1511 1510 1509 1508 1508 1507 1507 1506 1505 1504
1478 1478 1478 1478 1479 1481 1482 1483 1485 1488 1489 1491 1492 1494 1496 1499 1501 1502 1503 1505 1506 1507 1507 1508 1507 1507 1507 1507 1507 1506 1505 1505 1504 1504 1503 1502 1501 1500 1499 1498 1497 1496 1497
1480 1480 1480 1479 1480 1481 1482 1482 1485 1487 1488 1489 1490 1492 1493 1495 1497 1498 1499 1500 1500 1501 1501 1501 1501 1501 1501 1500 1499 1499 1498 1497 1496 1495 1494 1494 1493 1491 1490 1489 1488 1488 1488
1482 1482 1482 1481 1482 1483 1483 1483 1485 1486 1487 1488 1489 1490 1491 1492 1493 1494 1495 1495 1495 1496 1497 1496 1496 1496 1495 1494 1492 1491 1490 1489 1487 1486 1485 1484 1483 1481 1480 1479 1478 1478 1477
1485 1485 1484 1484 1484 1484 1484 1485 1486 1486 1486 1487 1487 1488 1488 1489 1490 1491 1491 1492 1492 1492 1492 1491 1490 1490 1489 1488 1486 1485 1483 1481 1479 1477 1475 1474 1472 1470 1469 1468 1467 1466 1466
1488 1487 1487 1486 1486 1486 1486 1486 1486 1486 1486 1486 1487 1487 1487 1487 1488 1487 1487 1488 1487 1487 1486 1485 1484 1483 1482 1481 1479 1477 1475 1474 1472 1469 1466 1465 1463 1461 1459 1458 1457 1456 1455
1491 1490 1489 1489 1488 1488 1488 1488 1487 1487 1487 1487 1487 1487 1487 1486 1486 1485 1485 1483 1483 1481 1480 1478 1477 1475 1474 1472 1470 1468 1466 1464 1462 1459 1456 1455 1454 1452 1450 1448 1447 1446 1445